Location: Lane
(33.5226°N, 79.8788°W)
Time: 10:20:49
(UTC+00:00)

Altair - Pass Details

Date: 07 October 2022
Orbit: 1501 x 1682 km, 47.2° (Epoch: 30 November)

Event Time Altitude Azimuth Distance (km) Brightness Sun altitude
Rises 12:54:43 0° 297° (WNW) 4,837 9.5 18.7°
Reaches altitude 10° 12:58:08 10° 305° (NW) 3,874 9.1 19.4°
Maximum altitude 13:07:22 40° 13° (NNE) 2,289 8.6 21.1°
Drops below altitude 10° 13:16:45 10° 80° (E) 3,943 10.7 22.9°
Sets 13:20:16 0° 88° (E) 4,931 11.2 23.6°
